Rush City, MN

12:26 PM CDT on August 25, 2016 (GMT -0500)
Rush City Regional

Weather History for KROS - January, 2014

Change the Weather History Date:

Thursday, January 23, 2014

  Actual Average (KCBG) Record (KCBG)
Temperature  
Mean Temperature -12 °F -  
Max Temperature -4 °F 23 °F 48 °F (1981)
Min Temperature -21 °F 4 °F -32 °F (1963)
Degree Days  
Heating Degree Days 78    
Moisture  
Dew Point -20 °F    
Average Humidity 68    
Maximum Humidity 79    
Minimum Humidity 54    
Precipitation  
Precipitation 0.00 in - - ()
Sea Level Pressure  
Sea Level Pressure 30.53 in    
Wind  
Wind Speed 5 mph (West)    
Max Wind Speed 12 mph    
Max Gust Speed -    
Visibility 10 miles    
Events      
Averages and records for this station are not official NWS values.
T = Trace of Precipitation, MM = Missing Value Source: NWS Daily Summary

Daily Weather History Graph

Daily Weather History Graph

Search for Another Location

Airport or City:

Trip Planner

Search our weather history database for the weather conditions in past years. The results will help you decide how hot, cold, wet, or windy it might be!

Date:

Astronomy

Jan. 23, 2014 Rise Set
Actual Time 7:42 AM CST 5:05 PM CST
Civil Twilight 7:10 AM CST 5:37 PM CST
Nautical Twilight 6:33 AM CST 6:13 PM CST
Astronomical Twilight 5:58 AM CST 6:49 PM CST
Moon No Moon Rise 10:54 AM CST (1/23)
Length of Visible Light 10h 27m
Length of Day
9h 22m
Waning Gibbous, 55% of the Moon is Illuminated
Jan 23
Waning Gibbous
Jan 23
Last Quarter
Jan 30
New
Feb 6
First Quarter
Feb 14
Full

Hourly Weather History & Observations

Time (CST) Temp. Windchill Dew Point Humidity Pressure Visibility Wind Dir Wind Speed Gust Speed Precip Events Conditions
12:14 AM -8.7 °F -21.9 °F -16.8 °F 68% 30.46 in 10.0 mi NNW 5.8 mph - N/A   Clear
12:35 AM -9.4 °F -18.6 °F -17.3 °F 68% 30.47 in 10.0 mi NNW 3.5 mph - N/A   Clear
12:55 AM -9.6 °F -22.9 °F -17.5 °F 68% 30.48 in 10.0 mi NW 5.8 mph - N/A   Scattered Clouds
1:15 AM -9.8 °F -24.7 °F -17.7 °F 68% 30.48 in 10.0 mi NW 6.9 mph - N/A   Mostly Cloudy
1:35 AM -9.9 °F -23.4 °F -17.9 °F 68% 30.49 in 10.0 mi NW 5.8 mph - N/A   Mostly Cloudy
1:54 AM -10.8 °F -27.4 °F -18.8 °F 68% 30.50 in 10.0 mi WNW 8.1 mph - N/A   Mostly Cloudy
2:15 AM -13.0 °F -28.6 °F -19.8 °F 72% 30.51 in 10.0 mi WNW 6.9 mph - N/A   Mostly Cloudy
2:35 AM -13.9 °F -26.1 °F -20.4 °F 73% 30.52 in 10.0 mi WNW 4.6 mph - N/A   Mostly Cloudy
2:55 AM -14.6 °F -24.5 °F -21.1 °F 73% 30.53 in 10.0 mi WNW 3.5 mph - N/A   Scattered Clouds
3:15 AM -15.3 °F -29.8 °F -21.5 °F 74% 30.53 in 10.0 mi WNW 5.8 mph - N/A   Scattered Clouds
3:35 AM -15.7 °F -25.8 °F -22.0 °F 73% 30.55 in 10.0 mi WNW 3.5 mph - N/A   Scattered Clouds
3:55 AM -14.8 °F -27.2 °F -20.7 °F 75% 30.56 in 10.0 mi NW 4.6 mph - N/A   Scattered Clouds
4:15 AM -15.2 °F -29.5 °F -21.5 °F 73% 30.57 in 10.0 mi NW 5.8 mph - N/A   Mostly Cloudy
4:35 AM -16.1 °F -30.6 °F -22.2 °F 74% 30.58 in 10.0 mi WNW 5.8 mph - N/A   Mostly Cloudy
4:55 AM -16.6 °F -31.3 °F -22.5 °F 74% 30.59 in 10.0 mi WNW 5.8 mph - N/A   Scattered Clouds
5:15 AM -17.0 °F -29.7 °F -23.1 °F 74% 30.59 in 10.0 mi WNW 4.6 mph - N/A   Scattered Clouds
5:34 AM -18.4 °F -33.4 °F -23.8 °F 76% 30.60 in 10.0 mi WNW 5.8 mph - N/A   Scattered Clouds
5:55 AM -18.4 °F -31.4 °F -24.3 °F 74% 30.61 in 10.0 mi WNW 4.6 mph - N/A   Mostly Cloudy
6:15 AM -19.8 °F -30.5 °F -25.6 °F 75% 30.62 in 10.0 mi WNW 3.5 mph - N/A   Mostly Cloudy
6:34 AM -20.0 °F - -25.6 °F 75% 30.63 in 10.0 mi Calm Calm - N/A   Scattered Clouds
6:55 AM -20.6 °F - -26.0 °F 76% 30.64 in 10.0 mi Calm Calm - N/A   Scattered Clouds
7:15 AM -21.5 °F -32.4 °F -26.9 °F 76% 30.64 in 10.0 mi WNW 3.5 mph - N/A   Scattered Clouds
7:34 AM -20.4 °F -33.7 °F -25.8 °F 76% 30.65 in 10.0 mi NW 4.6 mph - N/A   Clear
7:55 AM -19.8 °F -33.1 °F -25.4 °F 75% 30.65 in 10.0 mi NW 4.6 mph - N/A   Mostly Cloudy
8:14 AM -19.3 °F -34.5 °F -25.2 °F 74% 30.65 in 10.0 mi WNW 5.8 mph - N/A   Mostly Cloudy
8:35 AM -18.9 °F -32.0 °F -24.9 °F 74% 30.65 in 10.0 mi WNW 4.6 mph - N/A   Scattered Clouds
8:55 AM -17.7 °F -32.5 °F -24.2 °F 72% 30.66 in 10.0 mi WNW 5.8 mph - N/A   Clear
9:15 AM -16.6 °F -26.8 °F -24.0 °F 69% 30.66 in 10.0 mi WNW 3.5 mph - N/A   Clear
9:35 AM -15.7 °F -25.8 °F -23.8 °F 67% 30.67 in 10.0 mi NW 3.5 mph - N/A   Clear
9:50 AM -15.2 °F -27.6 °F -23.8 °F 65% 30.67 in 10.0 mi WNW 4.6 mph - N/A   Clear
10:15 AM -14.8 °F -24.8 °F -23.6 °F 65% 30.69 in 10.0 mi NW 3.5 mph - N/A   Clear
10:34 AM -13.9 °F - -22.9 °F 64% 30.69 in 10.0 mi Calm Calm - N/A   Scattered Clouds
10:55 AM -12.8 °F -26.8 °F -22.9 °F 61% 30.69 in 10.0 mi WNW 5.8 mph - N/A   Scattered Clouds
11:15 AM -12.3 °F -21.9 °F -21.8 °F 63% 30.67 in 10.0 mi West 3.5 mph - N/A   Clear
11:34 AM -11.0 °F -22.8 °F -21.6 °F 59% 30.67 in 10.0 mi West 4.6 mph - N/A   Scattered Clouds
11:55 AM -11.4 °F - -22.2 °F 59% 30.66 in 10.0 mi Calm Calm - N/A   Clear
12:15 PM -10.1 °F -21.7 °F -21.5 °F 57% 30.66 in 10.0 mi West 4.6 mph - N/A   Clear
12:34 PM -9.9 °F -19.2 °F -21.3 °F 57% 30.65 in 10.0 mi West 3.5 mph - N/A   Scattered Clouds
12:55 PM -9.6 °F -18.8 °F -21.1 °F 57% 30.64 in 10.0 mi SW 3.5 mph - N/A   Scattered Clouds
1:15 PM -9.8 °F -21.3 °F -21.1 °F 57% 30.63 in 10.0 mi West 4.6 mph - N/A   Scattered Clouds
1:34 PM -8.5 °F -21.6 °F -20.2 °F 57% 30.63 in 10.0 mi WSW 5.8 mph - N/A   Scattered Clouds
1:55 PM -7.8 °F -19.0 °F -19.8 °F 56% 30.62 in 10.0 mi West 4.6 mph - N/A   Scattered Clouds
2:15 PM -8.0 °F -21.0 °F -20.4 °F 55% 30.61 in 10.0 mi SW 5.8 mph - N/A   Scattered Clouds
2:35 PM -7.4 °F -20.4 °F -19.5 °F 56% 30.60 in 10.0 mi West 5.8 mph - N/A   Scattered Clouds
2:55 PM -6.7 °F -19.5 °F -19.3 °F 54% 30.60 in 10.0 mi WSW 5.8 mph - N/A   Scattered Clouds
3:14 PM -7.1 °F -19.9 °F -18.9 °F 56% 30.58 in 10.0 mi WSW 5.8 mph - N/A   Scattered Clouds
3:35 PM -7.4 °F -16.3 °F -19.3 °F 56% 30.58 in 10.0 mi WSW 3.5 mph - N/A   Scattered Clouds
3:55 PM -7.6 °F -20.6 °F -19.3 °F 57% 30.58 in 10.0 mi WSW 5.8 mph - N/A   Scattered Clouds
4:14 PM -7.8 °F - -18.4 °F 60% 30.58 in 10.0 mi Calm Calm - N/A   Scattered Clouds
4:35 PM -8.3 °F - -18.9 °F 60% 30.57 in 10.0 mi Calm Calm - N/A   Scattered Clouds
4:55 PM -8.5 °F - -18.4 °F 62% 30.55 in 10.0 mi Calm Calm - N/A   Mostly Cloudy
5:14 PM -9.4 °F - -18.8 °F 64% 30.54 in 10.0 mi Calm Calm - N/A   Scattered Clouds
5:35 PM -9.4 °F -18.6 °F -18.4 °F 65% 30.52 in 10.0 mi SW 3.5 mph - N/A   Mostly Cloudy
5:55 PM -9.4 °F -18.6 °F -18.4 °F 65% 30.51 in 10.0 mi SW 3.5 mph - N/A   Mostly Cloudy
6:14 PM -9.4 °F -18.6 °F -18.0 °F 66% 30.48 in 10.0 mi SSW 3.5 mph - N/A   Scattered Clouds
6:35 PM -10.1 °F -19.4 °F -18.4 °F 67% 30.47 in 10.0 mi South 3.5 mph - N/A   Mostly Cloudy
6:55 PM -10.5 °F -22.1 °F -18.2 °F 69% 30.46 in 10.0 mi South 4.6 mph - N/A   Scattered Clouds
7:14 PM -10.5 °F -24.0 °F -17.9 °F 70% 30.45 in 10.0 mi SSW 5.8 mph - N/A   Scattered Clouds
7:35 PM -10.3 °F -26.7 °F -17.3 °F 71% 30.42 in 10.0 mi South 8.1 mph - N/A   Clear
7:55 PM -10.3 °F -21.9 °F -17.1 °F 72% 30.41 in 10.0 mi South 4.6 mph - N/A   Clear
8:14 PM -9.9 °F -24.9 °F -16.6 °F 72% 30.38 in 10.0 mi South 6.9 mph - N/A   Clear
8:35 PM -9.9 °F -24.9 °F -15.9 °F 75% 30.36 in 10.0 mi South 6.9 mph - N/A   Clear
8:55 PM -9.8 °F -24.7 °F -15.3 °F 76% 30.34 in 10.0 mi South 6.9 mph - N/A   Clear
9:15 PM -9.8 °F -26.1 °F -15.2 °F 77% 30.32 in 10.0 mi South 8.1 mph - N/A   Clear
9:35 PM -9.4 °F -24.3 °F -14.8 °F 77% 30.29 in 10.0 mi South 6.9 mph - N/A   Clear
9:55 PM -8.7 °F -24.7 °F -13.7 °F 79% 30.27 in 10.0 mi South 8.1 mph - N/A   Clear
10:15 PM -7.4 °F -23.2 °F -12.3 °F 79% 30.25 in 10.0 mi South 8.1 mph - N/A   Clear
10:35 PM -6.2 °F -22.8 °F -11.0 °F 79% 30.22 in 10.0 mi South 9.2 mph - N/A   Scattered Clouds
10:55 PM -5.1 °F -21.5 °F -10.1 °F 79% 30.19 in 10.0 mi South 9.2 mph - N/A   Scattered Clouds
11:15 PM -4.2 °F -20.4 °F -9.4 °F 78% 30.17 in 10.0 mi South 9.2 mph - N/A   Scattered Clouds
11:35 PM -4.4 °F -20.6 °F -9.6 °F 78% 30.15 in 10.0 mi South 9.2 mph - N/A   Scattered Clouds
11:55 PM -4.0 °F -22.1 °F -9.2 °F 78% 30.12 in 10.0 mi South 11.5 mph - N/A   Mostly Cloudy